Wind_Speed
19 19 19 19 18 19 20 19 20 19 19 19 21 21 22 22 23 22 23 23 24 24 24 26 26 27 27 28 28 28 29 29 29 29 29 29 29 29
18 18 18 19 19 19 19 19 19 19 19 20 21 21 21 22 23 23 24 23 24 24 25 25 26 27 28 28 28 28 29 28 28 28 29 29 30 30
17 17 17 17 17 17 18 18 18 19 19 20 20 21 21 22 23 24 24 24 24 24 25 25 26 27 28 28 29 29 29 29 29 28 29 29 29 30
16 17 18 18 17 17 18 18 19 19 20 20 20 21 21 22 22 23 24 24 24 25 25 26 26 27 27 28 29 29 29 29 29 29 29 29 30 30
17 17 17 18 18 19 19 19 20 20 20 20 20 21 22 23 23 23 24 24 24 25 25 25 26 26 27 27 28 28 29 29 29 30 30 30 31 31
18 19 19 19 20 20 20 20 21 21 21 21 21 22 23 24 24 24 24 25 25 25 25 25 25 26 27 27 27 27 28 29 30 30 30 30 31 31
19 19 20 20 21 21 21 21 22 22 22 22 22 22 22 23 24 24 25 25 25 26 26 26 27 27 27 27 27 28 29 29 29 29 30 30 31 31
19 20 20 20 20 22 22 22 22 22 22 22 22 22 23 23 24 24 24 25 25 26 26 26 27 27 27 27 28 28 29 29 29 30 30 30 30 31
19 20 20 19 21 21 22 22 21 21 21 21 22 22 23 23 24 24 24 25 25 26 26 26 27 27 27 28 28 29 29 30 30 30 31 31 30 30
19 19 20 20 21 22 22 21 21 21 21 21 22 22 23 23 23 23 24 24 25 26 26 26 26 27 27 28 29 30 30 30 30 30 30 31 31 31
19 20 20 21 22 22 22 22 22 22 22 21 22 22 23 23 23 23 23 23 23 24 25 25 25 26 26 27 29 30 30 30 30 30 31 31 31 31
20 20 20 21 22 22 22 22 22 23 23 22 23 23 23 23 23 22 23 23 23 24 24 24 24 25 26 27 28 28 28 29 29 29 30 30 31 31
20 20 21 22 22 23 23 23 23 24 23 23 23 23 23 23 23 22 22 23 23 24 24 24 24 25 26 26 27 28 28 28 28 29 29 30 30 30
21 21 21 22 23 23 23 23 23 23 23 23 23 22 22 22 21 22 22 22 22 23 23 23 24 24 24 25 26 26 26 27 27 28 28 29 29 29
21 21 22 23 23 23 23 23 23 23 23 23 22 22 21 20 20 20 21 22 22 23 23 23 23 23 23 24 24 24 25 25 27 27 27 28 28 29
22 22 22 23 23 23 23 23 23 23 22 22 21 21 21 21 21 21 22 22 22 22 22 23 23 23 23 24 24 25 25 26 26 25 26 26 27 28
22 22 22 22 23 23 22 22 23 22 22 22 22 22 22 22 23 23 23 23 22 22 22 23 23 24 25 25 25 25 26 26 26 26 26 27 27 27
21 21 21 21 22 22 22 22 22 22 22 23 23 23 23 23 23 23 23 23 23 24 24 24 24 25 25 25 25 26 27 27 27 27 28 28 29 29
20 20 21 22 23 22 22 22 22 22 22 22 23 23 23 23 23 23 23 24 24 24 25 24 24 25 25 25 25 26 27 27 27 27 28 28 28 29
21 21 22 22 23 22 22 22 22 22 22 22 22 22 22 23 23 23 23 23 23 24 24 23 24 25 25 25 25 26 27 27 27 27 28 28 28 29
21 22 22 22 22 22 22 23 24 23 23 23 23 23 23 23 23 23 22 22 22 22 22 23 23 23 24 24 24 24 25 26 27 28 28 29 29 29
21 22 22 22 22 22 22 23 23 23 22 23 23 23 22 22 22 22 22 22 23 23 23 23 22 22 22 22 22 22 23 24 25 26 27 28 28 28
22 22 22 22 21 22 23 23 22 22 22 22 22 22 22 23 23 23 23 23 24 24 23 22 22 22 22 22 22 22 23 23 24 24 25 25 25 26
Wind_Direction
278 276 275 274 274 273 275 277 277 274 271 272 273 272 271 268 267 265 263 263 263 262 262 262 261 261 262 261 260 259 259 258 258 257 256 255 256 256
276 275 273 272 272 274 276 278 278 277 276 276 275 273 271 270 269 267 264 263 264 264 263 263 263 262 260 260 260 261 260 258 258 257 257 256 256 256
276 275 274 276 279 279 280 282 281 281 280 280 277 275 274 272 271 269 266 265 265 266 266 265 264 262 261 260 261 261 261 259 257 258 258 257 256 256
280 278 277 277 279 280 282 285 285 283 282 283 280 278 277 278 276 273 270 267 266 267 267 265 263 262 263 263 261 260 260 260 259 259 259 258 257 257
280 280 280 280 280 282 284 285 286 284 284 285 284 281 282 282 279 276 272 269 268 269 267 264 264 264 264 263 260 258 259 261 260 260 260 259 259 258
279 279 278 279 279 282 285 287 287 285 285 285 285 283 283 281 279 276 275 273 272 271 267 266 265 265 264 264 262 260 261 262 261 260 261 260 259 259
280 279 277 278 280 282 284 286 287 286 285 284 285 285 285 283 280 277 276 274 274 273 271 269 268 268 266 265 263 263 263 264 264 263 262 262 261 259
281 279 278 280 280 282 285 287 287 287 287 286 288 287 287 285 283 279 277 276 274 274 273 271 268 266 264 262 263 264 265 265 266 265 264 262 262 261
280 280 279 280 282 285 287 288 288 290 290 288 289 289 288 287 285 282 280 279 276 274 274 273 270 268 267 265 264 264 265 266 267 266 264 263 263 262
282 282 281 282 285 286 286 287 288 290 291 289 290 290 290 288 287 284 282 281 277 276 275 273 272 271 268 267 267 266 265 265 266 266 264 262 262 263
282 283 282 283 285 285 285 286 288 289 290 289 292 292 290 289 287 284 281 280 278 277 277 274 272 272 269 268 268 268 267 265 265 265 264 264 264 263
284 285 284 284 285 284 285 287 288 289 289 290 292 292 290 289 288 284 281 279 278 278 279 277 274 272 270 268 267 267 267 266 267 267 266 266 266 264
286 286 286 285 286 287 287 288 289 290 289 289 291 292 290 288 287 286 284 280 279 279 279 277 275 273 271 270 268 267 267 268 269 269 267 267 267 266
288 287 288 287 287 288 288 289 291 290 290 289 290 290 288 288 288 288 286 283 283 282 281 280 278 276 275 274 271 269 269 270 271 272 270 267 267 268
290 289 288 288 289 288 286 288 290 291 292 290 290 290 288 287 289 289 288 286 286 285 283 281 280 278 278 277 274 271 271 272 273 273 272 271 270 271
288 289 289 289 290 290 289 290 291 291 292 291 290 291 289 287 289 291 290 288 285 285 283 282 280 279 279 279 277 274 274 275 275 274 274 273 273 274
286 286 288 287 288 290 291 291 290 290 292 292 291 290 291 291 290 290 290 288 287 284 281 282 281 280 281 280 277 276 276 276 276 276 276 276 275 275
286 287 289 290 291 292 292 292 292 291 292 292 290 289 289 290 290 290 290 289 287 286 285 283 281 281 280 279 278 277 276 276 276 277 278 280 279 279
287 289 291 292 293 292 290 290 292 293 293 292 291 290 289 289 289 289 290 290 289 289 288 285 284 283 282 281 280 279 278 276 277 279 280 281 282 282
288 291 292 292 292 290 289 290 291 293 293 294 294 292 291 291 291 290 290 290 291 290 288 287 287 286 285 284 282 280 278 278 278 280 281 281 282 282
288 290 292 293 293 290 289 290 291 293 293 293 294 294 294 294 294 292 291 291 292 292 292 291 289 288 288 287 285 282 281 281 282 282 282 282 282 281
291 292 292 293 293 292 290 290 291 291 291 293 294 295 295 295 295 295 293 293 293 293 292 291 291 291 291 290 289 286 285 285 286 286 285 285 284 283
292 294 294 293 293 292 292 293 293 293 293 295 296 296 297 297 296 295 295 294 292 291 289 288 288 290 291 290 289 288 288 288 289 289 289 289 289 287
Height
5789 5789 5788 5788 5788 5788 5788 5788 5788 5788 5789 5789 5789 5789 5789 5790 5790 5791 5792 5793 5793 5794 5795 5796 5797 5799 5800 5800 5801 5802 5804 5805 5806 5807 5809 5810 5812 5813
5784 5784 5784 5783 5783 5783 5783 5782 5782 5783 5783 5783 5783 5783 5783 5783 5783 5784 5785 5786 5787 5787 5788 5788 5789 5790 5791 5792 5793 5794 5796 5797 5798 5799 5801 5802 5803 5804
5780 5780 5779 5779 5779 5778 5778 5778 5777 5777 5777 5778 5777 5777 5777 5777 5777 5777 5778 5778 5779 5780 5780 5781 5781 5782 5783 5784 5785 5786 5787 5789 5790 5791 5792 5793 5795 5796
5775 5775 5775 5775 5774 5774 5774 5773 5772 5771 5771 5771 5771 5771 5770 5770 5770 5770 5770 5771 5772 5772 5772 5773 5774 5774 5775 5776 5777 5778 5779 5780 5782 5783 5784 5785 5786 5788
5771 5771 5770 5770 5770 5769 5769 5768 5767 5766 5766 5766 5766 5765 5764 5764 5763 5763 5763 5764 5764 5765 5765 5765 5766 5767 5767 5768 5769 5770 5771 5772 5773 5774 5775 5776 5778 5779
5766 5766 5766 5765 5765 5765 5764 5763 5762 5761 5760 5760 5760 5759 5758 5757 5757 5757 5756 5757 5757 5757 5758 5758 5758 5759 5760 5760 5761 5762 5763 5763 5764 5765 5766 5767 5769 5770
5761 5760 5760 5760 5760 5759 5758 5758 5757 5756 5755 5754 5753 5753 5752 5751 5750 5749 5749 5749 5749 5749 5750 5750 5751 5751 5752 5752 5753 5753 5754 5755 5755 5756 5757 5758 5759 5760
5755 5755 5755 5755 5754 5754 5753 5752 5751 5750 5749 5748 5747 5746 5745 5744 5743 5742 5741 5742 5742 5742 5742 5742 5743 5743 5744 5744 5745 5745 5745 5746 5746 5747 5748 5748 5749 5750
5750 5750 5749 5749 5749 5748 5747 5746 5745 5744 5743 5742 5741 5739 5738 5737 5736 5734 5734 5734 5734 5733 5734 5734 5734 5735 5735 5735 5736 5736 5737 5737 5737 5737 5738 5738 5739 5740
5744 5744 5743 5743 5742 5742 5741 5740 5739 5737 5736 5735 5734 5733 5731 5730 5728 5727 5726 5726 5725 5725 5725 5726 5726 5726 5726 5726 5727 5727 5727 5727 5727 5728 5728 5729 5729 5730
5739 5738 5737 5737 5736 5735 5735 5734 5733 5731 5730 5729 5727 5726 5724 5723 5721 5720 5719 5718 5718 5717 5717 5717 5718 5718 5718 5718 5718 5718 5718 5718 5718 5718 5719 5719 5720 5720
5733 5732 5731 5731 5730 5729 5728 5727 5726 5725 5723 5722 5721 5719 5717 5716 5714 5713 5712 5711 5711 5710 5709 5709 5709 5709 5710 5709 5709 5708 5708 5708 5709 5709 5709 5709 5709 5710
5728 5727 5726 5725 5724 5723 5722 5720 5719 5717 5716 5715 5713 5712 5710 5709 5707 5706 5704 5703 5703 5702 5702 5701 5701 5701 5701 5701 5700 5700 5699 5700 5699 5699 5699 5699 5699 5699
5722 5721 5719 5718 5717 5716 5715 5713 5712 5710 5709 5707 5706 5705 5703 5702 5701 5699 5697 5696 5695 5695 5694 5693 5693 5693 5692 5692 5692 5691 5691 5691 5691 5690 5690 5689 5689 5689
5715 5714 5713 5712 5710 5709 5708 5707 5705 5703 5702 5700 5699 5698 5696 5695 5694 5693 5691 5690 5688 5687 5686 5686 5685 5685 5684 5684 5683 5683 5683 5682 5682 5681 5681 5680 5679 5679
5709 5708 5707 5705 5704 5702 5701 5700 5698 5696 5695 5693 5692 5691 5690 5689 5687 5686 5684 5683 5682 5681 5679 5678 5677 5677 5676 5676 5675 5675 5674 5674 5673 5672 5672 5671 5670 5670
5702 5701 5700 5699 5698 5696 5695 5693 5691 5690 5689 5687 5686 5685 5683 5682 5681 5679 5677 5676 5674 5673 5673 5672 5670 5669 5668 5667 5666 5666 5666 5665 5664 5663 5662 5661 5661 5660
5696 5695 5694 5693 5691 5690 5688 5687 5685 5684 5682 5681 5679 5678 5676 5675 5673 5672 5670 5668 5667 5666 5665 5664 5662 5661 5660 5659 5658 5657 5657 5656 5655 5654 5653 5652 5651 5650
5690 5689 5688 5686 5685 5684 5682 5681 5679 5677 5676 5674 5672 5671 5669 5668 5666 5664 5663 5661 5659 5658 5656 5655 5654 5652 5652 5651 5650 5648 5647 5646 5645 5644 5643 5642 5641 5640
5684 5683 5682 5680 5679 5677 5676 5675 5673 5672 5670 5668 5666 5664 5663 5661 5659 5657 5655 5653 5651 5650 5648 5647 5645 5644 5643 5642 5641 5639 5638 5637 5636 5635 5634 5632 5631 5629
5678 5677 5675 5674 5672 5671 5669 5668 5667 5665 5664 5662 5660 5658 5656 5654 5652 5650 5648 5646 5644 5642 5641 5639 5637 5635 5634 5632 5632 5631 5629 5627 5626 5625 5623 5622 5621 5619
5671 5670 5669 5668 5666 5665 5663 5662 5660 5659 5657 5655 5653 5651 5649 5647 5645 5643 5641 5639 5637 5635 5634 5632 5630 5628 5626 5625 5624 5623 5621 5619 5617 5615 5613 5612 5610 5609
5665 5664 5663 5661 5660 5659 5657 5655 5654 5652 5651 5649 5647 5645 5643 5640 5638 5636 5634 5632 5630 5628 5626 5624 5623 5621 5620 5618 5617 5615 5614 5612 5610 5608 5606 5603 5601 5599